Weather History for Crane Lake, MN

Change the Weather History Date:

Tuesday, January 28, 2014

  Actual Average Record
Temperature  
Mean Temperature -16 °F -  
Max Temperature -2 °F 18 °F 39 °F (2008)
Min Temperature -31 °F 1 °F -31 °F (2014)
Degree Days  
Heating Degree Days 82    
Moisture  
Dew Point -21 °F    
Average Humidity 70    
Maximum Humidity 77    
Minimum Humidity 60    
Precipitation  
Precipitation 0.00 in - - ()
Sea Level Pressure  
Sea Level Pressure 30.00 in    
Wind  
Wind Speed 3 mph (WSW)    
Max Wind Speed 12 mph    
Max Gust Speed 20 mph    
Visibility 10 miles    
Events      
Averages and records for this station are not official NWS values.
T = Trace of Precipitation, MM = Missing Value Source: NWS Daily Summary

Daily Weather History Graph

Daily Weather History Graph

Search for Another Location

Airport:

Trip Planner

Search our weather history database for the weather conditions in past years. The results will help you decide how hot, cold, wet, or windy it might be!

Date:

Astronomy

Jan. 28, 2014 Rise Set
Actual Time 7:43 AM CST 5:03 PM CST
Civil Twilight 7:09 AM CST 5:36 PM CST
Nautical Twilight 6:31 AM CST 6:14 PM CST
Astronomical Twilight 5:55 AM CST 6:51 PM CST
Moon 5:28 AM CST (1/28) 2:50 PM CST (1/28)
Length of Visible Light 10h 27m
Length of Day
9h 19m
Waning Crescent, 7% of the Moon is Illuminated
Jan 28
Waning Crescent
Jan 30
New
Feb 6
First Quarter
Feb 14
Full
Feb 22
Last Quarter

Hourly Weather History & Observations

Time (CST) Temp. Windchill Dew Point Humidity Pressure Visibility Wind Dir Wind Speed Gust Speed Precip Events Conditions
12:02 AM -20.2 °F - -27.4 °F 69% 30.19 in 10.0 mi Calm Calm - N/A   Clear
12:21 AM -20.2 °F - -29.2 °F 63% 30.19 in 10.0 mi Calm Calm - N/A   Clear
12:41 AM -23.8 °F - -29.2 °F 76% 30.18 in 10.0 mi Calm Calm - N/A   Clear
1:02 AM -23.8 °F - -31.0 °F 69% 30.17 in 10.0 mi Calm Calm - N/A   Clear
1:22 AM -22.0 °F -35.6 °F -29.2 °F 69% 30.17 in 10.0 mi WSW 4.6 mph - N/A   Clear
1:42 AM -22.0 °F - -29.2 °F 69% 30.16 in 10.0 mi Calm Calm - N/A   Clear
2:02 AM -23.8 °F -35.0 °F -29.2 °F 76% 30.17 in 10.0 mi WSW 3.5 mph - N/A   Clear
2:21 AM -23.8 °F -35.0 °F -29.2 °F 76% 30.16 in 10.0 mi WSW 3.5 mph - N/A   Clear
2:41 AM -23.8 °F - -29.2 °F 76% 30.16 in 10.0 mi Calm Calm - N/A   Clear
3:01 AM -23.8 °F - -31.0 °F 69% 30.15 in 10.0 mi Calm Calm - N/A   Clear
3:21 AM -25.6 °F - -32.8 °F 69% 30.15 in 10.0 mi Calm Calm - N/A   Clear
3:42 AM -25.6 °F - -31.0 °F 76% 30.14 in 10.0 mi Calm Calm - N/A   Clear
4:02 AM -25.6 °F - -32.8 °F 69% 30.13 in 10.0 mi Calm Calm - N/A   Clear
4:22 AM -27.4 °F - -34.6 °F 69% 30.13 in 10.0 mi Calm Calm - N/A   Clear
4:41 AM -31.0 °F - -38.2 °F 68% 30.12 in 10.0 mi Calm Calm - N/A   Clear
5:01 AM -27.4 °F - -34.6 °F 69% 30.12 in 10.0 mi Calm Calm - N/A   Scattered Clouds
5:21 AM -23.8 °F -35.0 °F -29.2 °F 76% 30.11 in 10.0 mi West 3.5 mph - N/A   Overcast
5:42 AM -22.0 °F -33.0 °F -27.4 °F 76% 30.10 in 10.0 mi West 3.5 mph - N/A   Mostly Cloudy
6:02 AM -22.0 °F -35.6 °F -27.4 °F 76% 30.10 in 10.0 mi West 4.6 mph - N/A   Overcast
6:21 AM -20.2 °F - -27.4 °F 69% 30.09 in 10.0 mi Calm Calm - N/A   Overcast
6:41 AM -20.2 °F - -27.4 °F 69% 30.09 in 10.0 mi Calm Calm - N/A   Overcast
7:01 AM -20.2 °F -30.9 °F -27.4 °F 69% 30.09 in 10.0 mi West 3.5 mph - N/A   Overcast
7:21 AM -20.2 °F - -27.4 °F 69% 30.08 in 10.0 mi Calm Calm - N/A   Scattered Clouds
7:41 AM -20.2 °F -30.9 °F -27.4 °F 69% 30.08 in 10.0 mi SSW 3.5 mph - N/A   Clear
8:01 AM -20.2 °F - -27.4 °F 69% 30.08 in 10.0 mi Calm Calm - N/A   Scattered Clouds
8:21 AM -20.2 °F - -25.6 °F 76% 30.08 in 10.0 mi Calm Calm - N/A   Scattered Clouds
8:42 AM -18.4 °F -28.9 °F -23.8 °F 76% 30.07 in 10.0 mi WSW 3.5 mph - N/A   Clear
9:01 AM -18.4 °F -31.4 °F -23.8 °F 76% 30.07 in 10.0 mi West 4.6 mph - N/A   Clear
9:21 AM -16.6 °F -32.9 °F -23.8 °F 70% 30.07 in 10.0 mi West 6.9 mph - N/A   Scattered Clouds
9:41 AM -16.6 °F -31.3 °F -23.8 °F 70% 30.06 in 10.0 mi West 5.8 mph - N/A   Clear
10:02 AM -14.8 °F -30.8 °F -20.2 °F 77% 30.06 in 10.0 mi WSW 6.9 mph - N/A   Clear
10:22 AM -13.0 °F -28.6 °F -20.2 °F 70% 30.06 in 10.0 mi West 6.9 mph - N/A   Clear
10:41 AM -11.2 °F -23.0 °F -18.4 °F 70% 30.05 in 7.0 mi West 4.6 mph - N/A   Clear
11:02 AM -11.2 °F -26.4 °F -18.4 °F 70% 30.05 in 4.0 mi West 6.9 mph - N/A   Haze
11:22 AM -9.4 °F -25.6 °F -16.6 °F 71% 30.03 in 7.0 mi West 8.1 mph - N/A   Scattered Clouds
11:41 AM -7.6 °F -26.6 °F -14.8 °F 71% 30.02 in 10.0 mi West 11.5 mph 19.6 mph N/A   Mostly Cloudy
12:01 PM -7.6 °F -25.7 °F -16.6 °F 65% 30.00 in 10.0 mi West 10.4 mph 17.3 mph N/A   Overcast
12:21 PM -7.6 °F -18.8 °F -16.6 °F 65% 29.99 in 7.0 mi West 4.6 mph - N/A   Overcast
12:41 PM -7.6 °F -20.6 °F -16.6 °F 65% 29.98 in 10.0 mi West 5.8 mph - N/A   Overcast
1:01 PM -5.8 °F -16.7 °F -14.8 °F 65% 29.96 in 10.0 mi West 4.6 mph 17.3 mph N/A   Overcast
1:21 PM -5.8 °F -19.9 °F -14.8 °F 65% 29.96 in 10.0 mi WSW 6.9 mph - N/A   Overcast
1:41 PM -4.0 °F -14.6 °F -14.8 °F 60% 29.94 in 10.0 mi West 4.6 mph - N/A   Overcast
2:01 PM -4.0 °F -20.2 °F -14.8 °F 60% 29.94 in 10.0 mi WSW 9.2 mph - N/A   Overcast
2:21 PM -2.2 °F -16.8 °F -13.0 °F 60% 29.93 in 10.0 mi WSW 8.1 mph - N/A   Overcast
2:41 PM -4.0 °F -17.8 °F -14.8 °F 60% 29.93 in 10.0 mi SW 6.9 mph - N/A   Overcast
3:01 PM -5.8 °F -22.4 °F -14.8 °F 65% 29.92 in 10.0 mi West 9.2 mph 16.1 mph N/A   Overcast
3:21 PM -4.0 °F -16.3 °F -14.8 °F 60% 29.92 in 10.0 mi SW 5.8 mph - N/A   Overcast
3:42 PM -4.0 °F -19.0 °F -14.8 °F 60% 29.91 in 10.0 mi WSW 8.1 mph - N/A   Overcast
4:02 PM -5.8 °F -19.9 °F -14.8 °F 65% 29.91 in 10.0 mi SW 6.9 mph - N/A   Overcast
4:21 PM -5.8 °F -18.4 °F -14.8 °F 65% 29.91 in 10.0 mi WSW 5.8 mph - N/A   Overcast
4:42 PM -5.8 °F -23.4 °F -14.8 °F 65% 29.90 in 10.0 mi SW 10.4 mph 17.3 mph N/A   Overcast
5:01 PM -5.8 °F -18.4 °F -14.8 °F 65% 29.89 in 10.0 mi SW 5.8 mph - N/A   Mostly Cloudy
5:21 PM -7.6 °F -22.1 °F -14.8 °F 71% 29.88 in 10.0 mi SW 6.9 mph - N/A   Scattered Clouds
5:42 PM -7.6 °F -23.4 °F -14.8 °F 71% 29.89 in 10.0 mi West 8.1 mph - N/A   Clear
6:02 PM -7.6 °F -18.8 °F -14.8 °F 71% 29.89 in 10.0 mi WSW 4.6 mph - N/A   Clear
6:22 PM -7.6 °F -18.8 °F -14.8 °F 71% 29.89 in 10.0 mi West 4.6 mph - N/A   Clear
6:41 PM -7.6 °F -20.6 °F -14.8 °F 71% 29.88 in 10.0 mi SW 5.8 mph - N/A   Scattered Clouds
7:01 PM -7.6 °F -20.6 °F -14.8 °F 71% 29.88 in 10.0 mi SW 5.8 mph - N/A   Clear
7:21 PM -7.6 °F -22.1 °F -14.8 °F 71% 29.87 in 10.0 mi WSW 6.9 mph - N/A   Clear
7:41 PM -7.6 °F -18.8 °F -14.8 °F 71% 29.86 in 10.0 mi WSW 4.6 mph - N/A   Clear
8:01 PM -7.6 °F -24.6 °F -14.8 °F 71% 29.87 in 10.0 mi WSW 9.2 mph - N/A   Clear
8:21 PM -7.6 °F -22.1 °F -14.8 °F 71% 29.87 in 10.0 mi WSW 6.9 mph - N/A   Scattered Clouds
8:41 PM -7.6 °F -22.1 °F -14.8 °F 71% 29.86 in 10.0 mi WSW 6.9 mph - N/A   Scattered Clouds
9:01 PM -7.6 °F -16.5 °F -14.8 °F 71% 29.85 in 10.0 mi WSW 3.5 mph - N/A   Clear
9:21 PM -7.6 °F -22.1 °F -14.8 °F 71% 29.86 in 10.0 mi West 6.9 mph - N/A   Clear
9:41 PM -7.6 °F -22.1 °F -14.8 °F 71% 29.85 in 10.0 mi WSW 6.9 mph - N/A   Clear
10:02 PM -7.6 °F -16.5 °F -13.0 °F 77% 29.84 in 10.0 mi WSW 3.5 mph - N/A   Scattered Clouds
10:22 PM -7.6 °F -18.8 °F -13.0 °F 77% 29.84 in 10.0 mi WSW 4.6 mph - N/A   Mostly Cloudy
10:41 PM -7.6 °F -20.6 °F -13.0 °F 77% 29.85 in 10.0 mi WSW 5.8 mph - N/A   Scattered Clouds
11:02 PM -7.6 °F -16.5 °F -13.0 °F 77% 29.84 in 10.0 mi West 3.5 mph - N/A   Scattered Clouds
11:21 PM -7.6 °F -16.5 °F -13.0 °F 77% 29.84 in 10.0 mi West 3.5 mph - N/A   Scattered Clouds
11:42 PM -7.6 °F -20.6 °F -13.0 °F 77% 29.84 in 10.0 mi SW 5.8 mph - N/A   Clear